TimeEDT,TemperatureF,Dew PointF,Humidity,Sea Level PressureIn,VisibilityMPH,Wind Direction,Wind SpeedMPH,Gust SpeedMPH,PrecipitationIn,Events,Conditions,WindDirDegrees,DateUTC
12:54 AM,57.0,55.9,96,29.80,-9999.0,North,-9999.0,-,N/A,,Unknown,0,2013-05-11 04:54:00
1:54 AM,57.0,55.9,96,29.77,-9999.0,North,-9999.0,-,N/A,,Unknown,0,2013-05-11 05:54:00
2:54 AM,57.0,55.9,96,29.75,-9999.0,North,-9999.0,-,0.01,,Unknown,0,2013-05-11 06:54:00
3:54 AM,57.0,55.9,96,29.73,-9999.0,North,-9999.0,-,N/A,,Unknown,0,2013-05-11 07:54:00
4:54 AM,57.9,55.9,93,29.70,-9999.0,North,-9999.0,-,N/A,,Unknown,0,2013-05-11 08:54:00
5:54 AM,57.9,55.9,93,29.71,-9999.0,North,-9999.0,-,N/A,,Unknown,0,2013-05-11 09:54:00
6:54 AM,57.9,55.9,93,29.70,-9999.0,North,-9999.0,-,0.03,,Unknown,0,2013-05-11 10:54:00
7:54 AM,59.0,57.0,93,29.68,-9999.0,North,-9999.0,-,0.02,,Unknown,0,2013-05-11 11:54:00
8:54 AM,59.0,57.0,93,29.68,-9999.0,North,-9999.0,-,N/A,,Unknown,0,2013-05-11 12:54:00
9:54 AM,61.0,57.0,87,29.67,-9999.0,North,-9999.0,-,N/A,,Unknown,0,2013-05-11 13:54:00
10:54 AM,63.0,57.9,84,29.65,-9999.0,North,-9999.0,-,N/A,,Unknown,0,2013-05-11 14:54:00
11:54 AM,64.9,57.9,78,29.65,-9999.0,North,-9999.0,-,N/A,,Unknown,0,2013-05-11 15:54:00
12:54 PM,64.9,57.9,78,29.63,-9999.0,North,-9999.0,-,N/A,,Unknown,0,2013-05-11 16:54:00
1:54 PM,64.9,57.9,78,29.62,-9999.0,North,-9999.0,-,N/A,,Unknown,0,2013-05-11 17:54:00
2:54 PM,63.0,60.1,90,29.62,-9999.0,North,-9999.0,-,0.04,,Unknown,0,2013-05-11 18:54:00
3:54 PM,64.9,60.1,84,29.61,-9999.0,North,-9999.0,-,0.02,,Unknown,0,2013-05-11 19:54:00
4:54 PM,64.0,60.1,87,29.60,-9999.0,North,-9999.0,-,N/A,,Unknown,0,2013-05-11 20:54:00
5:54 PM,63.0,60.1,90,29.59,-9999.0,North,-9999.0,-,0.01,,Unknown,0,2013-05-11 21:54:00
6:54 PM,63.0,59.0,87,29.60,-9999.0,North,-9999.0,-,N/A,,Unknown,0,2013-05-11 22:54:00
7:54 PM,63.0,59.0,87,29.62,-9999.0,North,-9999.0,-,N/A,,Unknown,0,2013-05-11 23:54:00
8:54 PM,61.0,54.0,78,29.65,-9999.0,North,-9999.0,-,N/A,,Unknown,0,2013-05-12 00:54:00
9:54 PM,57.0,51.1,81,29.66,-9999.0,North,-9999.0,-,N/A,,Unknown,0,2013-05-12 01:54:00
10:54 PM,55.9,48.9,77,29.67,-9999.0,North,-9999.0,-,N/A,,Unknown,0,2013-05-12 02:54:00
11:54 PM,55.0,48.9,80,29.67,-9999.0,North,-9999.0,-,N/A,,Unknown,0,2013-05-12 03:54:00